TimeEST,TemperatureF,Dew PointF,Humidity,Sea Level PressureIn,VisibilityMPH,Wind Direction,Wind SpeedMPH,Gust SpeedMPH,PrecipitationIn,Events,Conditions,WindDirDegrees,DateUTC
12:54 AM,32.0,30.9,96,30.04,5.0,Calm,Calm,-,N/A,,Overcast,0,2012-12-08 05:54:00
1:54 AM,32.0,32.0,100,30.04,6.0,Calm,Calm,-,N/A,,Overcast,0,2012-12-08 06:54:00
2:54 AM,30.0,28.9,96,30.02,3.0,Calm,Calm,-,N/A,,Clear,0,2012-12-08 07:54:00
3:01 AM,30.2,28.4,93,30.01,2.5,Calm,Calm,-,N/A,,Clear,0,2012-12-08 08:01:00
3:09 AM,30.2,28.4,93,30.01,3.0,Calm,Calm,-,N/A,,Clear,0,2012-12-08 08:09:00
3:30 AM,28.4,28.4,100,30.01,1.8,Calm,Calm,-,N/A,,Scattered Clouds,0,2012-12-08 08:30:00
3:38 AM,28.4,28.4,100,30.01,1.0,Calm,Calm,-,N/A,,Mostly Cloudy,0,2012-12-08 08:38:00
3:42 AM,28.4,28.4,100,30.01,2.0,Calm,Calm,-,N/A,,Mostly Cloudy,0,2012-12-08 08:42:00
3:50 AM,28.4,28.4,100,30.01,4.0,Calm,Calm,-,N/A,,Overcast,0,2012-12-08 08:50:00
3:54 AM,28.9,28.0,96,30.02,5.0,Calm,Calm,-,N/A,,Overcast,0,2012-12-08 08:54:00
4:54 AM,28.0,28.0,100,30.03,5.0,Calm,Calm,-,N/A,,Scattered Clouds,0,2012-12-08 09:54:00
5:54 AM,28.9,28.0,96,30.04,9.0,Calm,Calm,-,0.00,,Overcast,0,2012-12-08 10:54:00
6:54 AM,30.0,30.0,100,30.04,7.0,Calm,Calm,-,0.00,,Overcast,0,2012-12-08 11:54:00
7:26 AM,30.2,30.2,100,30.02,5.0,Calm,Calm,-,0.01,Rain,Light Freezing Rain,0,2012-12-08 12:26:00
7:54 AM,32.0,30.9,96,30.03,3.0,Calm,Calm,-,0.01,Rain,Light Freezing Rain,0,2012-12-08 12:54:00
8:36 AM,32.0,32.0,100,30.00,4.0,Calm,Calm,-,0.00,,Overcast,0,2012-12-08 13:36:00
8:54 AM,32.0,32.0,100,30.02,5.0,Calm,Calm,-,0.00,,Overcast,0,2012-12-08 13:54:00
9:54 AM,33.1,32.0,96,30.02,7.0,Calm,Calm,-,0.01,Rain,Light Rain,0,2012-12-08 14:54:00
10:54 AM,34.0,33.1,96,29.99,5.0,Calm,Calm,-,0.03,Rain,Light Rain,0,2012-12-08 15:54:00
11:05 AM,33.8,33.8,100,29.96,6.0,Calm,Calm,-,0.00,Rain,Light Rain,0,2012-12-08 16:05:00
11:17 AM,33.8,32.0,93,29.96,7.0,Calm,Calm,-,0.00,Rain,Light Rain,0,2012-12-08 16:17:00
11:54 AM,35.1,33.1,92,29.96,9.0,Calm,Calm,-,0.01,Rain,Light Rain,0,2012-12-08 16:54:00
12:54 PM,36.0,33.1,89,29.92,10.0,Calm,Calm,-,0.01,,Overcast,0,2012-12-08 17:54:00
1:54 PM,36.0,33.1,89,29.91,10.0,Calm,Calm,-,N/A,,Overcast,0,2012-12-08 18:54:00
2:54 PM,36.0,33.1,89,29.89,10.0,Calm,Calm,-,N/A,,Overcast,0,2012-12-08 19:54:00
3:54 PM,36.0,34.0,93,29.89,10.0,Calm,Calm,-,N/A,,Overcast,0,2012-12-08 20:54:00
4:54 PM,35.1,34.0,96,29.89,4.0,Calm,Calm,-,N/A,,Overcast,0,2012-12-08 21:54:00
5:54 PM,35.1,34.0,96,29.90,4.0,SW,3.5,-,N/A,,Overcast,230,2012-12-08 22:54:00
6:54 PM,35.1,34.0,96,29.88,10.0,Calm,Calm,-,N/A,,Overcast,0,2012-12-08 23:54:00
8:12 PM,35.6,33.8,93,29.86,10.0,Calm,Calm,-,N/A,,Overcast,0,2012-12-09 01:12:00
8:32 PM,33.8,33.8,100,29.86,5.0,Calm,Calm,-,N/A,,Scattered Clouds,0,2012-12-09 01:32:00
8:47 PM,33.8,32.0,93,29.86,1.8,Calm,Calm,-,N/A,,Partly Cloudy,0,2012-12-09 01:47:00
8:52 PM,33.8,32.0,93,29.86,2.0,Calm,Calm,-,N/A,,Scattered Clouds,0,2012-12-09 01:52:00
8:54 PM,32.0,32.0,100,29.88,2.0,Calm,Calm,-,N/A,,Scattered Clouds,0,2012-12-09 01:54:00
8:59 PM,32.0,32.0,100,29.86,2.5,Calm,Calm,-,N/A,,Mostly Cloudy,0,2012-12-09 01:59:00
9:15 PM,30.2,30.2,100,29.86,1.5,Calm,Calm,-,N/A,,Overcast,0,2012-12-09 02:15:00
9:24 PM,33.8,32.0,93,29.86,2.0,Calm,Calm,-,N/A,,Overcast,0,2012-12-09 02:24:00
9:54 PM,32.0,32.0,100,29.88,2.5,Calm,Calm,-,N/A,,Overcast,0,2012-12-09 02:54:00
10:19 PM,32.0,32.0,100,29.86,1.5,Calm,Calm,-,N/A,,Overcast,0,2012-12-09 03:19:00
10:37 PM,30.2,30.2,100,29.87,1.5,Calm,Calm,-,N/A,,Overcast,0,2012-12-09 03:37:00
10:44 PM,30.2,30.2,100,29.87,3.0,Calm,Calm,-,N/A,,Overcast,0,2012-12-09 03:44:00
10:54 PM,30.9,30.9,100,29.89,4.0,Calm,Calm,-,N/A,,Overcast,0,2012-12-09 03:54:00
11:15 PM,30.2,30.2,100,29.88,2.0,Calm,Calm,-,N/A,,Overcast,0,2012-12-09 04:15:00
11:24 PM,30.2,30.2,100,29.87,0.5,Calm,Calm,-,N/A,Fog,Light Freezing Fog,0,2012-12-09 04:24:00
11:31 PM,30.2,30.2,100,29.87,0.2,Calm,Calm,-,N/A,Fog,Light Freezing Fog,0,2012-12-09 04:31:00
11:54 PM,30.9,28.9,92,29.90,0.2,Calm,Calm,-,N/A,Fog,Light Freezing Fog,0,2012-12-09 04:54:00